Location: Duac?
(36.9744°N, 30.6500°E)
Time: 12:16:31
(UTC+00:00)

Cosmos 1741 Rocket - Pass Details

Date: 05 August 2024
Orbit: 759 x 779 km, 74.0° (Epoch: 11 September)

Event Time Altitude Azimuth Distance (km) Brightness Sun altitude
Rises 19:26:13 0° 347° (NNW) 3,241 8.2 -24.8°
Reaches altitude 10° 19:28:40 10° 353° (N) 2,308 7.2 -25.2°
Enters shadow 19:33:32 50° 60° (ENE) 965 4.3 -25.8°
